FLOCK 4S-44 (47686 NORAD) Tracking and Keplerian Element Data

This shows tracking and keplerian element data for the satellite.

Feedback or suggestion? Click here.




ElementValue
Catalog47686
NameFLOCK 4S-44
Epoch Orbit1197
Epoch Day101.80894923
Epoch Year2021
RAAN164.2189
Inclination97.5005
Eccentricity0.0011373
Argument of Perigee343.867
Mean Anonmoly16.2197
Mean Motion15.12716816
Decay Rate1.419E-05
L11 47686U 21006EM 21101.80894923 .00001419 00000-0 84650-4 0 9990
L22 47686 97.5005 164.2189 0011373 343.8670 16.2197 15.12716816 11978

Live tracking and technical data element details for FLOCK 4S-44 (NORAD 47686). FLOCK 4S-44 can be tracked NOW for your location showing map with azimuth and elevation plus other details from your city location.

Track the satellite on the map from your city or location and see movement details for azimuth, elevation, latitude, longitude, range, height, and movement on the map or in text.







IsCatalogInMostPopularTable: catalog: 47686, numindb: 16
Update: records affected: 1



GetName: 47686 FLOCK 4S-44

Hit Count: updated at: Tue, 13 Apr 2021 04:31:16 GMT